Regional Weather Roundup
Issued by NWS

Home | Current Version | Previous Version | Graphics & Text | Print | Product List | Glossary On
Versions: 1 2 3 4 5 6 7 8 9 10 11 12 13 14 15 16 17 18 19 20 21 22 23 24 25 26 27 28 29 30 31 32 33 34 35 36 37 38 39 40 41 42 43 44 45 46 47 48 49 50
000
ASUS43 KMKX 260500
RWRWI

WISCONSIN REGIONAL WEATHER ROUNDUP
NATIONAL WEATHER SERVICE MILWAUKEE/SULLIVAN WI
1200 AM CDT SUN MAR 26 2017

NOTE: "FAIR" INDICATES FEW OR NO CLOUDS BELOW 12,000 FEET WITH NO
SIGNIFICANT WEATHER AND/OR OBSTRUCTIONS TO VISIBILITY.

WIZ001-002-006>008-014>016-023>028-260600-
NORTHWEST WISCONSIN

CITY           SKY/WX    TMP DP  RH WIND       PRES   REMARKS
SUPERIOR ARPT  CLOUDY    33  32  96 NE13      30.12F WCI  24
ASHLAND        CLOUDY    33  30  88 E9        30.12F WCI  25
HAYWARD        CLOUDY    36  29  75 NE6       30.06F WCI  31
SIREN          CLOUDY    36  30  78 NE8       30.07F WCI  29
CUMBERLAND     CLOUDY    36  32  87 E7        30.05F WCI  30
RICE LAKE      CLOUDY    37  34  90 CALM      30.06F
CHETEK         CLOUDY    36  34  92 E5        30.05F WCI  32
LADYSMITH      CLOUDY    36  33  90 E6        30.07F WCI  31
EAU CLAIRE     CLOUDY    36  33  89 E13       30.04F WCI  27
MENOMONIE      CLOUDY    37  35  93 E8        30.05S WCI  30
NEW RICHMOND   CLOUDY    37  36  96 E6        30.04F FOG     WCI  32
OSCEOLA        CLOUDY    39  34  82 NE6       30.07F WCI  35
$$

WIZ003>005-009-010-017-018-260600-
NORTH CENTRAL WISCONSIN

CITY           SKY/WX    TMP DP  RH WIND       PRES   REMARKS
MANITOWISH WTR CLOUDY    32  32 100 E7        30.07F WCI  26
ARBOR VITAE    MIX PCPN  34  32  93 SE6       30.06F WCI  29
WOODRUFF       MIX PCPN  34  32  93 SE6       30.06F WCI  29
RHINELANDER    LGT RAIN  34  33  96 E9        30.06F WCI  27
EAGLE RIVER    CLOUDY    32  32 100 E8        30.08F WCI  25
LAND O LAKES   CLOUDY    33  32  98 SE9       30.10F FOG     WCI  25
PHILLIPS       CLOUDY    32  32  99 E6        30.06F WCI  27
TOMAHAWK       DRIZZLE   32  31  96 E5        30.07F WCI  27
MEDFORD        MIX PCPN  32  31  96 E7        30.04F WCI  26
MERRILL        CLOUDY    33  33  98 E7        30.07F WCI  27
$$

WIZ029-030-035-036-043>047-260600-
CENTRAL WISCONSIN

CITY           SKY/WX    TMP DP  RH WIND       PRES   REMARKS
WAUSAU         CLOUDY    33  32  96 E12G18    30.05F WCI  24
MOSINEE        CLOUDY    32  32 100 E14       30.07F WCI  22
MARSHFIELD     CLOUDY    33  31  92 E14       30.03F FOG     WCI  23
STEVENS POINT  CLOUDY    32  32 100 E12G18    30.07F FOG     WCI  23
WAUPACA        CLOUDY    37  35  93 NE7       30.08F FOG     WCI  31
WAUTOMA        MIX PCPN  35  34  96 NE13      30.04F WCI  26
WISC RAPIDS    CLOUDY    34  34 100 E13       30.05F WCI  25
CAMP DOUGLAS   CLOUDY    36  36 100 E9        30.02F FOG     WCI  29
$$

WIZ011>013-019>022-031-037>040-048>050-260600-
NORTHEAST WISCONSIN

CITY           SKY/WX    TMP DP  RH WIND       PRES   REMARKS
ANTIGO         CLOUDY    32  31  98 E15       30.07F WCI  21
SHAWANO        CLOUDY    35  33  92 E14       30.11F WCI  26
OCONTO         CLOUDY    33  32  95 NE12G17   30.12F WCI  25
STURGEON BAY   MIX PCPN  34  33  96 NE10      30.12F WCI  26
GREEN BAY      LGT RAIN  35  35 100 NE12      30.09F FOG     WCI  27
MANITOWOC      NOT AVBL
APPLETON       CLOUDY    34  34 100 NE12G18   30.05F FOG     WCI  25
CLINTONVILLE   DRIZZLE   34  32  93 E10       30.09F WCI  26
OSHKOSH        CLOUDY    37  35  92 NE12      30.04F WCI  29
$$

WIZ032>034-041-042-053>061-260600-
SOUTHWEST WISCONSIN

CITY           SKY/WX    TMP DP  RH WIND       PRES   REMARKS
LA CROSSE      CLOUDY    38  36  92 E9        30.01F WCI  31
SPARTA         CLOUDY    35  35  99 E9        30.03F FOG     WCI  28
VIROQUA        CLOUDY    36  36 100 E13       29.98S VSB 1   WCI  27
BOSCOBEL       CLOUDY    40  38  93 NE5       29.97F FOG
PRAIRIE DU CHI CLOUDY    39  38  97 NE6       29.97F FOG     WCI  34
PLATTEVILLE    CLOUDY    40  40 100 NE15      29.93F WCI  32
$$

WIZ056-057-062-063-064-067-068-260600-
SOUTH CENTRAL WISCONSIN

CITY           SKY/WX    TMP DP  RH WIND       PRES   REMARKS
REEDSBURG      CLOUDY    36  36 100 NE9       30.00F FOG     WCI  29
BARABOO/DELLS  CLOUDY    36  36  98 NE9G16    30.00F FOG     WCI  29
LONE ROCK      CLOUDY    40  37  89 E12       29.99F FOG     WCI  33
MINERAL POINT  CLOUDY    41  41 100 NE14G20   29.94F
MADISON        LGT RAIN  39  38  96 NE12      29.98F WCI  32
MIDDLETON      CLOUDY    40  40  99 NE9       29.99F WCI  34
WATERTOWN      CLOUDY    39  39 100 E14       29.99F FOG     WCI  31
MONROE         FOG       39  39 100 NE15      29.94F VSB 3/4 WCI  31
JANESVILLE     CLOUDY    43  43 100 E12       29.95F FOG
$$

WIZ051-052-058>065-066-070>072-260600-
SOUTHEAST WISCONSIN

CITY           SKY/WX    TMP DP  RH WIND       PRES   REMARKS
MILWAUKEE      CLOUDY    39  37  92 NE12      30.02F FOG     WCI  32
WAUKESHA       CLOUDY    36  36 100 E12       30.02F FOG     WCI  27
MILWAUKEE/TIMM CLOUDY    37  36  93 NE6       30.04F FOG     WCI  33
RACINE         CLOUDY    39  37  92 NE13      30.02F FOG     WCI  31
KENOSHA        LGT RAIN  41  40  96 NE10      29.99F FOG
FOND DU LAC    CLOUDY    38  35  89 NE9       30.04F WCI  31
SHEBOYGAN      CLOUDY    37  35  92 NE13      30.06F FOG     WCI  29
WEST BEND      CLOUDY    36  36 100 E10       30.03F WCI  28
JUNEAU         CLOUDY    38  37  95 NE10      30.02F WCI  31
$$

LSZ147-162-260600-
LAKE SUPERIOR

STATION/POSITION TIME  TEMP    WIND        PRES    WAVE
                       AIR SEA DIR/SP/G            HT/PER
                 (UTC) (F)     (DEG/KT/KT) (MB)    (FT/S)
DEVILS ISLAND    0400   33      80/ 20/ 22 1022.0F
PORT WING        0430   34      70/  5/  8 1020.7S
SAXON HARBOR     0440   33      60/  9/ 13 1019.6F
$$

LMZ867-665-643>646-260600-
LAKE MICHIGAN

STATION/POSITION TIME  TEMP    WIND        PRES    WAVE
                       AIR SEA DIR/SP/G            HT/PER
                 (UTC) (F)     (DEG/KT/KT) (MB)    (FT/S)
CHAMBERS ISLAND  0440   33      40/ 13/ 17 1020.3F
NORTHPORT PIER   0440   33      70/ 19/ 21 1021.0F
SISTER BAY       0406   33     110/ 10/ 16   N/A
KEWAUNEE LAKESHO 0418   36      50/  9/ 14 1019.3
SHEBOYGAN LAKESH 0400   36      30/ 13/ 13 1018.9F
PORT WASHINGTON  0440   39      40/ 11/ 15 1018.6F
MILWAUKEE LAKESH 0440   38      30/ 16/ 18   N/A
KENOSHA   LAKESH 0400   38      30/ 15/ 18 1016.6
$$

TC  - TEMPERATURE IN CELSIUS
VSB - VISIBILITY IN STATUTE MILES
WCI - WIND CHILL INDEX
HX  - HEAT INDEX





USA.gov is the U.S. government's official web portal to all federal, state and local government web resources and services.